www.pogodaiklimat.ru

Погода и климат >> Архив погоды >> Россия >> Якутия >> Тонгулах


ПОГОДА в Тонгулахе

  • Прогноз погоды в Тонгулахе
  • Монитор погоды в Тонгулахе
  • Климат города

АРХИВ ПОГОДЫ в Тонгулахе

Время (UTC), дата Ветер
(напр.,м/с)
 
Видим.   Явления Облачность Т
(С)
Тd
(С)
f
(%)
Тe
(С)
Тes
(С)
Комфортность P
(гПа)
Po
(гПа)
Тmin
(С)
Tmax
(С)
R
(мм)
R24
(мм)
S
(см)
15 15.02 З 1 10 км слабый снег 10/0
[As op]
-21.5 -24.0 80 -25 -25 1021.6 994.4
18 15.02 штиль 0 10 км слабый снег 10/0
[As op]
-21.0 -23.5 80 -21 -21 1021.8 994.6
21 15.02 штиль 0 20 км {снег} 10/0
[As op]
-27.0 -29.5 79 -27 -27 1022.8 995.0
00 16.02 штиль 0 50 км {снег} 10/0
[As op]
-28.5 -31.0 79 -29 -29 1023.2 995.2 -28.6 0.6 48
03 16.02 СЗ 1 50 км 10/0
[Cs]
-19.5 -22.1 80 -22 -21 1022.5 995.5
06 16.02 СЗ 2 50 км 4/0
[Ci fib]
-16.4 -20.6 70 -22 -21 1022.0 995.4
09 16.02 СЗ 1 50 км 3/0
[Ci fib]
-19.0 -22.3 75 -22 -22 1022.7 995.7
12 16.02 штиль 0 20 км ясно -21.5 -24.0 80 -22 -22 1023.5 996.3 -16.1
15 16.02 штиль 0 20 км ясно -28.0 -30.5 79 -28 -28 1024.4 995.4
18 16.02 штиль 0 20 км ясно -29.4 -31.8 80 -29 -29 1024.2 996.1
21 16.02 штиль 0 20 км ясно -35.5 -37.7 80 -36 -36 опасность
обморожения
1024.5 995.6
00 17.02 штиль 0 50 км ясно -37.5 -39.9 78 -38 -37 опасность
обморожения
1024.9 995.7 -35.3 48
03 17.02 штиль 0 50 км ясно -24.0 -26.5 80 -24 -22 1022.7 995.2
06 17.02 штиль 0 50 км 6/0
[Ci fib]
-17.5 -20.9 75 -18 -16 1021.1 994.4
09 17.02 штиль 0 50 км 6/0
[Ci fib]
-21.0 -23.5 80 -21 -21 1021.6 994.4
12 17.02 штиль 0 20 км 8/0
[Ci fib]
-29.0 -31.4 80 -29 -29 1022.8 994.7 -17.3
15 17.02 штиль 0 20 км 6/0
[Ci fib]
-33.0 -35.4 79 -33 -33 опасность
обморожения
1023.4 994.9
18 17.02 штиль 0 20 км 3/0
[Ci fib]
-35.0 -37.4 79 -35 -35 опасность
обморожения
1024.1 996.3
21 17.02 штиль 0 20 км 10/0
[Ci fib]
-36.4 -39.4 74 -36 -36 опасность
обморожения
1024.2 995.3
00 18.02 штиль 0 50 км 10/0
[Ci fib]
-38.3 -40.9 76 -38 -38 опасность
обморожения
1024.8 995.6 -38.5 48
03 18.02 штиль 0 50 км 10/0
[Cs]
-28.4 -30.8 80 -28 -26 1023.7 995.7
06 18.02 штиль 0 50 км 10/0
[Ci fib]
-21.9 -25.2 75 -22 -21 1022.6 995.3
09 18.02 штиль 0 50 км 10/0
[Cs]
-24.6 -27.9 74 -25 -25 1023.5 995.9
12 18.02 штиль 0 20 км 10/0
[Cs]
-33.0 -36.0 74 -33 -33 опасность
обморожения
1024.8 996.3 -21.6
15 18.02 штиль 0 20 км 10/0
[Cs]
-33.4 -35.6 80 -33 -33 опасность
обморожения
1024.3 995.9
18 18.02 штиль 0 20 км 10/0
[As trans Cs]
-33.8 -36.2 79 -34 -34 опасность
обморожения
1023.9 995.2
21 18.02 штиль 0 50 км 3/0
[As op]
-36.0 -39.0 74 -36 -36 опасность
обморожения
1023.5 994.6
00 19.02 штиль 0 50 км 9/0
[Ci sp]
-39.0 -41.8 75 -39 -39 опасность
обморожения
1023.5 994.2 -39.3 48
03 19.02 З 1 50 км 10/0
[Ac trans Cs]
-28.3 -31.3 75 -32 -31 опасность
обморожения
1021.6 993.6
06 19.02 З 1 50 км 8/0
[Ac trans Ci fib]
-24.6 -28.6 69 -28 -27 1020.6 993.0
09 19.02 штиль 0 50 км 6/0
[Ac trans Ci fib]
-28.1 -31.2 75 -28 -28 1021.3 993.3
12 19.02 штиль 0 20 км 3/0
[Ci fib]
-36.0 -39.0 74 -36 -36 опасность
обморожения
1022.1 993.2 -24.2
15 19.02 штиль 0 20 км 3/0
[Ci fib]
-40.0 -42.8 74 -40 -40 опасность
обморожения
1022.1 992.7
18 19.02 штиль 0 20 км 4/0
[Ci fib]
-40.5 -43.3 74 -41 -41 опасность
обморожения
1021.5 992.1
21 19.02 штиль 0 20 км ясно -42.8 -45.6 74 -43 -43 опасность
обморожения
1021.5 991.9
00 20.02 штиль 0 50 км 3/0
[Ci fib]
-42.7 -45.6 73 -43 -42 опасность
обморожения
1021.3 991.5 -43.1 48
03 20.02 З 3 50 км 10/0
[Cs]
-33.5 -35.6 81 -44 -43 опасность
обморожения
1019.9 991.4
06 20.02 З 1 50 км 10/0
[Cs]
-25.5 -29.4 70 -29 -28 1018.2 990.6
09 20.02 штиль 0 50 км 3/0
[Ci fib]
-28.0 -31.2 74 -28 -28 1018.7 991.0
12 20.02 штиль 0 20 км 3/0
[Ci fib]
-34.0 -36.8 76 -34 -34 опасность
обморожения
1019.9 991.4 -25.2
15 20.02 штиль 0 20 км ясно -37.8 -40.5 76 -38 -38 опасность
обморожения
1019.4 990.4
18 20.02 штиль 0 20 км ясно -38.2 -40.9 76 -38 -38 опасность
обморожения
1018.8 989.8
21 20.02 штиль 0 20 км ясно -43.5 -45.3 82 -44 -44 опасность
обморожения
1019.8 990.0
00 21.02 штиль 0 50 км ясно -43.0 -45.6 75 -43 -43 опасность
обморожения
1019.7 990.1 -43.7 48
03 21.02 штиль 0 50 км ясно -32.0 -35.0 75 -32 -29 опасность
обморожения
1018.5 990.2
06 21.02 штиль 0 50 км ясно -24.5 -28.5 69 -25 -23 1017.3 989.8
09 21.02 штиль 0 50 км 3/0
[Ci fib]
-28.0 -31.9 69 -28 -28 1018.5 990.7
12 21.02 штиль 0 20 км 3/0
[Ci fib]
-34.0 -36.8 76 -34 -34 опасность
обморожения
1019.8 991.3 -24.3
15 21.02 штиль 0 20 км 3/0
[Ci fib]
-38.0 -40.9 74 -38 -38 опасность
обморожения
1028.0 991.4
18 21.02 штиль 0 20 км 3/0
[Ci fib]
-40.0 -42.4 78 -40 -40 опасность
обморожения
1020.9 991.6
21 21.02 штиль 0 20 км ясно -42.9 -46.6 67 -43 -43 опасность
обморожения
1021.4 992.2
00 22.02 штиль 0 50 км ясно -43.7 -46.3 75 -44 -43 опасность
обморожения
1022.5 992.6 -43.9 48
03 22.02 штиль 0 50 км ясно -31.5 -34.5 75 -32 -29 опасность
обморожения
1021.0 992.5
06 22.02 штиль 0 50 км ясно -21.7 -26.5 65 -22 -20 1019.5 992.4
09 22.02 штиль 0 50 км ясно -26.5 -29.8 74 -27 -27 1021.4 993.7

 

Местоположение метеостанции Тонгулах (Якутия, Россия): широта 61.92 долгота 124.50 высота над уровнем моря 199 м.

В архиве по умолчанию представлена погода в Тонгулахе за последнюю неделю. Архивные данные за месяц целиком и за предыдущие месяцы, начиная с января 2011 года, Вы можете получить, выбрав интересующий диапазон дат из раскрывающегося списка и нажав кнопку "Ввод!".

Внимание! Время в таблицах - всемирное. Для получения местного времени необходимо прибавить поправку, которая в Тонгулахе равна 9 ч.

Смотрите также архив погоды в соседних городах и на ближайших метеорологических станциях:

Погода в Исите (Якутия, Россия) (130 км)
Погода в Бердигестяхе (Якутия, Россия) (136 км)
Погода в Хатырык-Хомо (Якутия, Россия) (226 км)
Погода в Покровске (Якутия, Россия) (247 км)
Погода в Вилюйске (Якутия, Россия) (253 км)
Погода в Якутске (Якутия, Россия) (267 км)
Погода в Сангаре (Якутия, Россия) (269 км)
Погода в Олекминске (Якутия, Россия) (277 км)
Погода в Верхневилюйске (Якутия, Россия) (278 км)
Погода в Намцах (Якутия, Россия) (278 км)

Пояснения к столбцам:

Ветер - указаны скорость ветра в м/с - средняя за 10 мин, порывы в срок и между сроками (в фигурных скобках) и направление, откуда дует ветер: С - северный, СВ - северо-восточный, В - восточный, ЮВ - юго-восточный, Ю - южный, ЮЗ - юго-западный, З - западный, СЗ - северо-западный.
Видимость - горизонтальная дальность видимости в метрах или километрах. При видимости от 1 до 10 км при отсутствии осадков обычно наблюдается дымка, при ухудшении видимости до 1 км и менее - туман. В сухую погоду видимость может ухудшаться дымом, пылью или мглою.
Явления - указаны атмосферные явления, наблюдавшиеся в срок или в последний час перед сроком; фигурными скобками обозначены явления, наблюдавшиеся между сроками (за 1-3 часа до срока); квадратными скобками обозначены град или гололедные отложения с указанием их диаметра в мм.
Облачность - указаны через наклонную черту общая и нижняя облачность в баллах и высота нижней границы облаков в метрах; квадратными скобками обозначены формы облаков: Ci - перистые, Cs - перисто-слоистые, Cc - перисто-кучевые, Ac - высококучевые, As - высокослоистые, Sc - слоисто-кучевые, Ns - слоисто-дождевые, Cu - кучевые, Cb - кучево-дождевые. Подробнее классификацию облаков см. в Атласе облаков (PDF).
T - Температура воздуха - температура, измеренная на высоте 2 м над землей.
Td - Температура точки росы - температура, при понижении до которой содержащийся в воздухе водяной пар достигнет насыщения.
f - Относительная влажность воздуха - влажноcть воздуха, измеренная на высоте 2 м над землей.
Te - Эффективная температура - температура, которую ощущает одетый по сезону человек в тени. Характеристика душности погоды. При расчете учитывается влияние влажности воздуха и скорости ветра на теплоощущения человека.
Tes - Эффективная температура на солнце - температура, которую ощущает человек, с поправкой на солнечный нагрев. Характеристика знойности погоды. Зависит от высоты солнца над горизонтом, облачности и скорости ветра. Ночью, в пасмурную погоду, а также при ветре 12 м/с и более поправка равна нулю.
P - Атмосферное давление - приведенное к уровню моря атмосферное давление.
Po - Атмосферное давление - измеренное на уровне метеостанции атмосферное давление.
Tmin - Минимальная температура - минимум температуры воздуха на высоте 2 м над землей.
Tmax - Максимальная температура - максимум температуры воздуха на высоте 2 м над землей.
R - Количество осадков - Количество выпавших осадков за период времени, мм. При наведении курсора мыши на число - период времени, за который выпало указанное количество осадков.
R24 - Количество осадков - Количество выпавших осадков за 24 часа, мм.
S - Снежный покров - Высота снежного покрова, см. При наведении курсора мыши на число - состояние снежного покрова и степень покрытия местности в баллах.